Location: Beverley
(50.2667°N, 107.9667°W)
Time: 08:43:00
(UTC+00:00)

BEESAT - Visible Passes

Search period start: 27 June 2022 00:00
Search period end: 07 July 2022 00:00
Orbit: 698 x 708 km, 98.6° (Epoch: 26 June)

Date Brightness Start Highest point End Pass type
(mag) Time Alt. Az. Time Alt. Az. Time Alt. Az.
27 Jun ? 04:09:56 10° N 04:14:40 64° WNW 04:19:22 10° SSW visible
27 Jun ? 05:49:52 10° NNW 05:51:29 12° NW 05:53:06 10° WNW visible
28 Jun ? 04:53:19 10° N 04:57:23 29° WNW 05:01:27 10° WSW visible
29 Jun ? 05:37:22 10° NNW 05:39:52 14° NW 05:42:22 10° W visible
30 Jun ? 04:41:21 10° N 04:45:41 35° WNW 04:50:00 10° SW visible
01 Jul ? 05:25:08 10° NNW 05:28:14 17° NW 05:31:19 10° W visible
02 Jul ? 04:29:24 10° N 04:33:57 44° WNW 04:38:28 10° SW visible
03 Jul ? 05:13:00 10° N 05:16:34 21° WNW 05:20:07 10° WSW visible
04 Jul ? 04:17:30 10° N 04:22:12 56° WNW 04:26:51 10° SSW visible
04 Jul ? 05:58:06 10° NW 05:58:55 10° NW 05:59:45 10° WNW visible
05 Jul ? 05:00:57 10° N 05:04:53 26° WNW 05:08:48 10° WSW visible
06 Jul ? 04:05:38 10° N 04:10:24 71° WNW 04:15:10 10° SSW visible
06 Jul ? 05:45:12 10° NNW 05:47:19 13° NW 05:49:25 10° WNW visible
